Hors Challenge

Crêtes La Hulpoises - La Hulpe (17.90 km)

dimanche 17 octobre 2021

Vous pouvez trouver Le classement original sur : www.otopservices.be  
 
CRÊTES LA HULPOISES - LA HULPE
DISTANCE : 17.89 km
dimanche 17 octobre 2021
 
Place dos NOM Catégorie Pl/cat temps temps/km Vitesse
01:00:00              
1 73 THIBAULT DE RIJDT SENIOR H 1 01:05:28 03:40 16.40
2 72 MATHIEU DE RIJDT SENIOR H 2 01:05:32 03:40 16.38
3 312 OLIVIER VAN GULCK SENIOR H 3 01:06:16 03:42 16.20
4 317 BASTIEN VANDERMUNTER ESPOIR H 1 01:06:44 03:44 16.09
5 225 JÉRÉMY MORREN SENIOR H 4 01:07:13 03:45 15.97
6 106 ARNAUD DESCAMPE SENIOR H 5 01:07:22 03:46 15.94
7 137 ELIAS GOORMANS ESPOIR H 2 01:08:34 03:50 15.66
8 64 BENJAMIN DE GREEF ESPOIR H 3 01:09:25 03:53 15.47
9 428 XABIER CARRERA VETERAN 1 1 01:09:27 03:53 15.46
10 276 GREGOIRE RUYSSEN SENIOR H 6 01:09:48 03:54 15.38
11 91 SEBASTIEN DELANNOY VETERAN 1 2 01:09:48 03:54 15.38
12 2 OLIVIER ADANT SENIOR H 7 01:14:01 04:08 14.51
13 115 CORENTIN DUPUIS VETERAN 1 3 01:14:23 04:09 14.43
14 215 HAMICH MHAMED VETERAN 1 4 01:14:56 04:11 14.33
15 219 XAVIER MOLLE SENIOR H 8 01:15:46 04:14 14.17
16 31 AUGUSTIN BRUYR SENIOR H 9 01:15:47 04:14 14.17
17 241 SEBASTIEN PEDELUCQ SENIOR H 10 01:15:49 04:14 14.16
18 291 OLIVIER STIERNET VETERAN 1 5 01:16:07 04:15 14.11
19 107 FREDERIC DESILLE VETERAN 1 6 01:16:15 04:16 14.08
20 324 KEVIN VERBESSELT VETERAN 1 7 01:16:24 04:16 14.05
21 402 WILLIAN DOS SANTOS SENIOR H 11 01:16:45 04:17 13.99
22 415 DIDIER SNOECK VÉTÉRAN 2 1 01:16:45 04:17 13.99
23 128 OLIVIER GHILAIN SENIOR H 12 01:17:12 04:19 13.91
24 68 AUDREY DE MOOR SENIOR D 1 01:17:14 04:19 13.90
25 432 TANGUY INGELS SENIOR H 13 01:18:09 04:22 13.74
26 425 OLIVIER DE SOUANCE SENIOR H 14 01:18:15 04:22 13.72
27 274 JEAN RUELLE VETERAN 1 8 01:18:24 04:23 13.69
28 405 LAURENT BRANCART VETERAN 1 9 01:18:50 04:24 13.62
29 392 RAPHAEL BRABANT-PIRNAY SENIOR H 15 01:18:51 04:24 13.62
30 51 MATTHIEU COMPTE VETERAN 1 10 01:19:05 04:25 13.58
31 32 GUILLAUME BRUYR SENIOR H 16 01:19:08 04:25 13.57
32 401 DORIAN MEINGUET SENIOR H 17 01:19:23 04:26 13.52
33 374 OLIVIER BOELS SENIOR H 18 01:19:39 04:27 13.48
34 49 JO COLLOT VÉTÉRAN 2 2 01:19:47 04:28 13.46
35 188 LUDOVIC LEJEUNE VETERAN 1 11 01:19:58 04:28 13.43
36 174 XAVIER KUBORN VETERAN 1 12 01:20:26 04:30 13.35
37 315 GILLES VAN RAEMDONCK VÉTÉRAN 2 3 01:20:37 04:30 13.32
38 50 PIERRE-EMMANU COLPAERT SENIOR H 19 01:20:38 04:30 13.32
39 242 RAFAEL PEDEMONTE SENIOR H 20 01:21:10 04:32 13.23
40 209 ALEXANDRE MATOSSIAN SENIOR H 21 01:21:19 04:33 13.20
41 411 FREDERIC DEGEMBE VETERAN 1 13 01:21:29 04:33 13.18
42 282 PATRICK SCHMITZ VETERAN 1 14 01:21:32 04:33 13.17
43 189 THIERRY LELIEVRE VETERAN 1 15 01:21:33 04:33 13.17
44 434 OLIVIER VAN RIET VÉTÉRAN 2 4 01:21:45 04:34 13.13
45 431 BENOIT LEFEVRE SENIOR H 22 01:21:45 04:34 13.13
46 237 LIONEL PARENT VÉTÉRAN 2 5 01:21:46 04:34 13.13
47 390 BERTRAND VOS VETERAN 1 16 01:21:49 04:34 13.12
48 286 MIGUEL SORIA LOPEZ VETERAN 1 17 01:21:52 04:35 13.11
49 381 VINCENT MAONT SENIOR H 23 01:22:02 04:35 13.09
50 410 OLIVIER WEETS VÉTÉRAN 2 6 01:22:38 04:37 12.99
51 287 ANTOINE SOTO VÉTÉRAN 2 7 01:22:46 04:38 12.97
52 223 ALAIN MORBEE VÉTÉRAN 2 8 01:23:03 04:38 12.93
53 108 JEAN-MICHEL DEVILLERS VETERAN 1 18 01:23:14 04:39 12.90
54 193 PHILIPPE LESOIL VÉTÉRAN 2 9 01:23:23 04:40 12.88
55 257 JEAN-MARC PONCELET VETERAN 1 19 01:23:39 04:40 12.84
56 270 ARNAUD ROTTIER SENIOR H 24 01:23:42 04:41 12.83
57 204 HENRI MABILLE SENIOR H 25 01:23:43 04:41 12.82
58 97 FRANCOIS DELHOVE VETERAN 1 20 01:23:46 04:41 12.82
59 44 NICOLAS CHARLOTEAUX VETERAN 1 21 01:23:50 04:41 12.81
60 27 JEAN-MARC BOUMAL VETERAN 1 22 01:24:11 04:42 12.75
61 409 BART NEYNS VÉTÉRAN 2 10 01:24:16 04:43 12.74
62 272 ALEXIS ROUSSEAUX SENIOR H 26 01:24:21 04:43 12.73
63 54 ALAIN CRESPINET VÉTÉRAN 2 11 01:24:22 04:43 12.73
64 24 JORDAN BOCQUILLON SENIOR H 27 01:24:37 04:44 12.69
65 47 ERIK COCQUEREAUX VETERAN 1 23 01:24:41 04:44 12.68
66 183 FREDDY LANGENUS VETERAN 3 1 01:25:08 04:45 12.61
67 12 THOMAS BAUDUIN SENIOR H 28 01:25:12 04:46 12.60
68 142 ALEXANDRE GOUTHIERE SENIOR H 29 01:25:20 04:46 12.58
69 336 ALEXANDRE VERETTE SENIOR H 30 01:25:29 04:47 12.56
70 366 PAUL CULLOP VETERAN 3 2 01:25:30 04:47 12.56
71 570 TADEUSZ BUKOWSKI SENIOR H 31 01:25:39 04:47 12.54
72 165 CÉDRIC IEVEN SENIOR H 32 01:25:40 04:47 12.53
73 305 VINCENT VAN CAENEGEM SENIOR H 33 01:25:42 04:47 12.53
74 77 GUILLAUME DEBROUX SENIOR H 34 01:25:49 04:48 12.51
75 110 ALAIN DISCART VETERAN 1 24 01:25:53 04:48 12.50
76 419 CHARLOTTE BOCQUET SENIOR D 2 01:25:54 04:48 12.50
77 114 MATHIEU DUMONT SENIOR H 35 01:25:56 04:48 12.49
78 195 MAELLE LEVACQ SENIOR D 3 01:25:59 04:48 12.49
79 139 STANISLAS GORIELY VETERAN 1 25 01:26:01 04:48 12.48
80 228 GILLES NANIWE VETERAN 1 26 01:26:25 04:50 12.42
81 321 BASTIEN VANSOYE SENIOR H 36 01:26:38 04:50 12.39
82 240 GRÉGORY PATUREAU SENIOR H 37 01:26:41 04:51 12.39
83 227 JONATHAN MURRAY VETERAN 3 3 01:26:49 04:51 12.37
84 400 MATHIEU JACQUES DE VÉTÉRAN 2 12 01:26:58 04:52 12.35
85 65 GIL DE KRAHE SENIOR H 38 01:26:58 04:52 12.35
86 19 PHILIPPE BERTRAND VÉTÉRAN 2 13 01:27:11 04:52 12.31
87 254 FLORENCE PIRSON AINÉE 1 1 01:27:17 04:53 12.30
88 382 JULIEN JACQUES SENIOR H 39 01:27:28 04:53 12.28
89 109 NICOLAS DEWAEL SENIOR H 40 01:27:35 04:54 12.26
90 420 JULIEN SPRUMONT VETERAN 1 27 01:27:36 04:54 12.26
91 304 CHRISTINE VAN BUTSELE AINÉE 1 2 01:27:40 04:54 12.25
92 244 LUDOVIC PEETERS VETERAN 1 28 01:27:52 04:55 12.22
93 393 FRÉDÉRIC LAMON VETERAN 1 29 01:28:07 04:55 12.18
94 14 MATHIAS BEECKMAN SENIOR H 41 01:28:10 04:56 12.18
95 63 OLIVIER DE GRAVE VÉTÉRAN 2 14 01:28:19 04:56 12.16
96 89 CHRISTOPHE DELAERE VÉTÉRAN 2 15 01:28:24 04:56 12.15
97 155 PIERRE-YVES HERZL VÉTÉRAN 2 16 01:28:37 04:57 12.12
98 412 FREDERIC VANDESCHOOR VETERAN 1 30 01:28:47 04:58 12.09
99 406 SANDRA HAULAIT AINÉE 1 3 01:28:47 04:58 12.09
100 125 PIERRE GAUDILLAT VETERAN 1 31 01:29:00 04:58 12.06
101 235 PHILIPPE PAELEMAN VÉTÉRAN 2 17 01:29:04 04:59 12.05
102 367 CHRISTOPHE DE BACKER VETERAN 1 32 01:29:11 04:59 12.04
103 9 HORACIO BARATA VÉTÉRAN 2 18 01:29:11 04:59 12.04
104 95 MATTHIEU DELESCLUSE VETERAN 1 33 01:29:22 05:00 12.01
105 136 NASTASIA GONZALEZ SENIOR D 4 01:29:40 05:01 11.97
106 187 LAURENT LEJEUNE VETERAN 1 34 01:29:49 05:01 11.95
107 224 MASSIMO MORBEE ESPOIR H 4 01:30:10 05:02 11.91
108 251 TOM PIETERS VETERAN 1 35 01:30:11 05:02 11.91
109 361 GAETAN RINCHON SENIOR H 42 01:30:13 05:02 11.90
110 407 QUENTIN PADOVANO SENIOR H 43 01:30:16 05:03 11.89
111 18 ETIENNE BERREWAERTS VETERAN 3 4 01:30:38 05:04 11.85
112 395 KEVIN COPPENS SENIOR H 44 01:30:43 05:04 11.84
113 105 HENRI-FRANÇOIS DEPOUILLE VETERAN 1 36 01:30:46 05:04 11.83
114 156 JULIAN HEYMANS SENIOR H 45 01:31:03 05:05 11.79
115 111 JAVIER DOMINGUEZ SENIOR H 46 01:31:10 05:06 11.78
116 271 CHRISTIAN ROUSSEAU VÉTÉRAN 2 19 01:31:31 05:07 11.73
117 218 ALAIN MOES VÉTÉRAN 2 20 01:31:43 05:08 11.71
118 119 OLIVIER FOGUENNE VETERAN 1 37 01:31:45 05:08 11.70
119 380 CEDRIC DEVROYE VETERAN 1 38 01:32:03 05:09 11.66
120 275 MICHAEL RUPPRECHT VETERAN 1 39 01:32:09 05:09 11.65
121 113 VINCENT DUBOIS VÉTÉRAN 2 21 01:32:11 05:09 11.65
122 133 CHRISTOPHE GHYSSELINCKX VETERAN 1 40 01:32:16 05:09 11.64
123 210 ARNAUD MATTHEWS VETERAN 1 41 01:32:24 05:10 11.62
124 413 FRANÇOIS DEHOUCK SENIOR H 47 01:32:30 05:10 11.61
125 144 GILBERT GRANJON VÉTÉRAN 2 22 01:32:38 05:11 11.59
126 320 BERTRAND VANEGHEM VÉTÉRAN 2 23 01:32:44 05:11 11.58
127 71 DAMIEN DE PRA VETERAN 1 42 01:32:52 05:11 11.56
128 93 PASCAL DELCHARLERIE VETERAN 1 43 01:32:59 05:12 11.55
129 433 MARTIN TOURNAY SENIOR H 48 01:33:20 05:13 11.50
130 256 NICOLAS POIRE SENIOR H 49 01:33:23 05:13 11.50
131 178 MAXIME LAMARCHE SENIOR H 50 01:33:38 05:14 11.47
132 267 MARC ROMBAUX VETERAN 3 5 01:33:38 05:14 11.47
133 403 GEORGES THEYS VETERAN 1 44 01:33:40 05:14 11.46
134 190 FRAN LEMOINE VETERAN 1 45 01:33:46 05:14 11.45
135 280 PIERRE SAELENS SENIOR H 51 01:33:46 05:14 11.45
136 194 JEAN-LUC LETELLIER VÉTÉRAN 2 24 01:33:48 05:15 11.45
137 103 FRANCOIS DEMBLON SENIOR H 52 01:33:50 05:15 11.44
138 369 DIDIER LESNE VÉTÉRAN 2 25 01:33:50 05:15 11.44
139 376 MARIE-CÉCILE MICHEL AINÉE 1 4 01:33:54 05:15 11.43
140 75 PIERRE DE WAHA VÉTÉRAN 2 26 01:34:06 05:16 11.41
141 281 OLIVIER SAUME VETERAN 1 46 01:34:13 05:16 11.40
142 295 ANGELO TERRISSE ESPOIR H 5 01:34:21 05:16 11.38
143 25 YOHAN BOTQUIN SENIOR H 53 01:34:26 05:17 11.37
144 198 MAXIME LITTRE SENIOR H 54 01:34:30 05:17 11.36
145 335 JEREMY WOUTERS SENIOR H 55 01:34:33 05:17 11.36
146 171 MIRJA JOHNSON AINÉE 1 5 01:34:39 05:17 11.34
147 176 OSCAR LADEVEZE JEUNE H 1 01:34:45 05:18 11.33
148 331 THOMAS WOUTERS SENIOR H 56 01:34:45 05:18 11.33
149 307 CLEMENCE VAN DE VELDE SENIOR D 5 01:34:56 05:18 11.31
150 1 CHRISTIAN ABBISS VETERAN 1 47 01:34:56 05:18 11.31
151 61 YSEULT DE CLOEDT SENIOR D 6 01:34:57 05:18 11.31
152 426 PHILIPPE REY VETERAN 3 6 01:35:01 05:19 11.30
153 185 OLIVIER LE CLERCQ SENIOR H 57 01:35:05 05:19 11.29
154 416 BRUNO COLLET VÉTÉRAN 2 27 01:35:22 05:20 11.26
155 427 BENOIT LETOR VÉTÉRAN 2 28 01:35:22 05:20 11.26
156 308 WILLIAM VAN DEN BOSSCHE SENIOR H 58 01:35:23 05:20 11.26
157 153 GAETAN HERINCKX VETERAN 1 48 01:35:26 05:20 11.25
158 298 SUELI TILLIEUX AINÉE 1 6 01:35:27 05:20 11.25
159 29 ALEXANDRE BRIFFOZ SENIOR H 59 01:35:38 05:21 11.23
160 135 TERESA GOMES FERREIRA AINÉE 1 7 01:35:38 05:21 11.23
161 62 DAVID DE DAPPER VETERAN 1 49 01:35:38 05:21 11.23
162 397 PIERRE PLASMAN SENIOR H 60 01:35:47 05:21 11.21
163 220 VINCENT MONNART SENIOR H 61 01:35:53 05:22 11.20
164 202 PHILIPPE LOVENS VETERAN 1 50 01:35:57 05:22 11.19
165 16 MOHAMMED BEN AYAD VETERAN 3 7 01:36:05 05:22 11.17
166 20 LUC BIDAINE VETERAN 3 8 01:36:18 05:23 11.15
167 398 SIMON HENRY SENIOR H 62 01:36:48 05:25 11.09
168 60 OLIVIER DE CARTIER SENIOR H 63 01:37:05 05:26 11.06
169 149 WILLY HARDMAN VETERAN 3 9 01:38:02 05:29 10.95
170 296 RODRIGUE THEYS VETERAN 1 51 01:38:19 05:30 10.92
171 372 PHILIPPE VUYLSTEKE VETERAN 3 10 01:38:30 05:30 10.90
172 404 JOAQUIN GARCIA VÉTÉRAN 2 29 01:38:36 05:31 10.89
173 143 PHILIPPE GRANDELET VÉTÉRAN 2 30 01:38:54 05:32 10.86
174 206 FRÉDÉRIC MARCHAL VETERAN 1 52 01:38:58 05:32 10.85
175 13 GWENAELLE BAUWENS SENIOR D 7 01:38:58 05:32 10.85
176 38 FRANCOIS CARTUYVELS SENIOR H 64 01:39:16 05:33 10.82
177 362 ALEX ROBIN VÉTÉRAN 2 31 01:39:20 05:33 10.81
178 86 NICOLAAS DEGROOTE VETERAN 1 53 01:39:39 05:34 10.77
179 329 ALAIN WALLEE VETERAN 3 11 01:39:51 05:35 10.75
180 389 EMMANUEL KUHRY SENIOR H 65 01:39:53 05:35 10.75
181 182 JONATHAN LAMOTTE VETERAN 1 54 01:40:12 05:36 10.72
182 236 EVELYNE PAQUET AINÉE 1 8 01:40:15 05:36 10.71
183 203 MATTEO LUISETTO SENIOR H 66 01:40:16 05:36 10.71
184 285 LAURENT SOLON VÉTÉRAN 2 32 01:40:33 05:37 10.68
185 255 SÉBASTIEN PIRSON SENIOR H 67 01:40:39 05:37 10.67
186 7 JOHNNY BALTHAZARD VETERAN 3 12 01:40:50 05:38 10.65
187 78 JOE DECLERCQ VETERAN 3 13 01:40:52 05:38 10.64
188 265 ALAIN RICHE VÉTÉRAN 2 33 01:41:04 05:39 10.62
189 379 JAMES MORRIS SENIOR H 68 01:41:05 05:39 10.62
190 23 TANGUY BOCQUET SENIOR H 69 01:41:13 05:39 10.61
191 138 THIERRY GOORMANS VÉTÉRAN 2 34 01:41:13 05:39 10.61
192 211 ALEXANDRE MAURISSET VÉTÉRAN 2 35 01:41:14 05:39 10.61
193 59 JULIE DE CARTIER SENIOR D 8 01:41:23 05:40 10.59
194 429 PIERRE DORCIMONT VETERAN 1 55 01:41:24 05:40 10.59
195 11 LAURA BARDONE AINÉE 2 1 01:41:25 05:40 10.59
196 134 PATRICK GILLOT SENIOR H 70 01:41:33 05:41 10.57
197 306 NICOLAS VAN CUTSEM SENIOR H 71 01:41:49 05:41 10.54
198 140 LIONEL GOSSERIES VETERAN 1 56 01:41:51 05:42 10.54
199 421 FRANÇOIS SALES VÉTÉRAN 2 36 01:41:51 05:42 10.54
200 423 ANNICK GOOSSENS AINÉE 2 2 01:41:51 05:42 10.54
201 52 BRUNO COURTIN VETERAN 1 57 01:41:53 05:42 10.54
202 422 PASCALINE FOUCART AINÉE 1 9 01:41:55 05:42 10.53
203 6 ILAN BAHBOUT VÉTÉRAN 2 37 01:42:21 05:43 10.49
204 248 LUC PICHON VETERAN 1 58 01:42:33 05:44 10.47
205 386 GUY LEVACQ VÉTÉRAN 4 1 01:42:38 05:44 10.46
206 124 RODRIGO GARCIA VETERAN 1 59 01:43:02 05:45 10.42
207 160 MAX HORNUNG ESPOIR H 6 01:43:06 05:46 10.41
208 145 ROLANDE GROSSEN AINÉE 3 1 01:43:09 05:46 10.41
209 327 ALINE VILAIN SENIOR D 9 01:43:13 05:46 10.40
210 230 PATRICIA NELIS AINÉE 2 3 01:43:19 05:46 10.39
211 55 PIERRE CROES VETERAN 1 60 01:43:32 05:47 10.37
212 163 REGINA HUBER AINÉE 2 4 01:43:52 05:48 10.34
213 385 YVES COURTEQUISSE VETERAN 3 14 01:44:01 05:49 10.32
214 208 RAPHAEL MARYNS VETERAN 3 15 01:44:03 05:49 10.32
215 122 CAMILLE FRANSOLET SENIOR D 10 01:44:05 05:49 10.32
216 234 GABOR PADISAK VÉTÉRAN 2 38 01:44:10 05:49 10.31
217 377 SYLVAIN MICHEL VÉTÉRAN 2 39 01:44:18 05:50 10.29
218 238 KARINE PARMENTIER AINÉE 2 5 01:44:18 05:50 10.29
219 180 CHRISTOPHE LAMBERT VÉTÉRAN 2 40 01:44:20 05:50 10.29
220 36 SEBASTIEN CACIOPPO VETERAN 1 61 01:44:25 05:50 10.28
221 394 HICHAM BENALI VETERAN 1 62 01:44:27 05:50 10.28
222 277 LUCIE RUYSSEN SENIOR D 11 01:44:28 05:50 10.28
223 152 PIERRE HEMERYCK VETERAN 3 16 01:44:30 05:50 10.27
224 325 PIERRE-PAUL VERELST VÉTÉRAN 2 41 01:44:37 05:51 10.26
225 126 AXEL GAUTIER VETERAN 1 63 01:44:40 05:51 10.26
226 100 VINCENT DEMAIFFE VETERAN 1 64 01:44:52 05:52 10.24
227 221 LAURENT MONS SENIOR H 72 01:44:56 05:52 10.23
228 290 ERIC STIENSMA VETERAN 3 17 01:45:02 05:52 10.22
229 159 MATTHIEU HORNUNG VETERAN 1 65 01:45:04 05:52 10.22
230 207 ETIENNE MARCHAND VÉTÉRAN 4 2 01:45:04 05:52 10.22
231 424 SANDRINE VAN CASTER AINÉE 1 10 01:45:09 05:53 10.21
232 82 MARC DECROIX VETERAN 3 18 01:45:09 05:53 10.21
233 191 FABRICE LEMPEREUR VETERAN 1 66 01:45:15 05:53 10.20
234 408 JUAN MENENDEZ VÉTÉRAN 2 42 01:45:18 05:53 10.20
235 166 ANTOINE JACQUES VETERAN 1 67 01:45:20 05:53 10.19
236 48 MATHIEU COLLIN VETERAN 1 68 01:45:21 05:53 10.19
237 201 THOMAS LOUIS VETERAN 1 69 01:45:21 05:53 10.19
238 418 TAHA FADOUL VETERAN 1 70 01:45:23 05:53 10.19
239 146 ROBERT GRUMBERG VÉTÉRAN 2 43 01:45:23 05:53 10.19
240 17 BENOIT BERGHMANS VETERAN 1 71 01:45:26 05:54 10.18
241 313 CHRISTOPHE VAN MOLLEKOT VÉTÉRAN 2 44 01:45:27 05:54 10.18
242 302 BAUDOUIN URBAIN VÉTÉRAN 2 45 01:45:28 05:54 10.18
243 150 ALEXANDRE HEBRANT VETERAN 1 72 01:45:29 05:54 10.18
244 316 LAURENT VANDEN CAMP VETERAN 1 73 01:45:40 05:54 10.16
245 5 MARIE BACHY AINÉE 1 11 01:45:40 05:54 10.16
246 249 ALEXANDRE PIERARD VETERAN 1 74 01:45:49 05:55 10.15
247 53 ALINE COWE AINÉE 1 12 01:45:49 05:55 10.15
248 34 STEPHANIE BUSSCHAERT SENIOR D 12 01:46:10 05:56 10.11
249 252 AMANDINE PIETTE SENIOR D 13 01:46:35 05:57 10.07
250 232 MARIA CARMEN NOVELLA AINÉE 1 13 01:46:36 05:57 10.07
251 177 DENIS LALOY VÉTÉRAN 2 46 01:46:50 05:58 10.05
252 76 CHRISTOPHE DEBEUF VETERAN 1 75 01:46:50 05:58 10.05
253 430 DENIS WILIQUET VETERAN 1 76 01:46:57 05:59 10.04
254 79 ANTOINE DECLEVE VETERAN 1 77 01:47:01 05:59 10.03
255 299 OLIVIER TOMBOY VETERAN 1 78 01:47:01 05:59 10.03
256 154 ERIC HERION VETERAN 1 79 01:47:03 05:59 10.03
257 250 NATHALIE PIERARD AINÉE 1 14 01:47:03 05:59 10.03
258 323 JEAN-LUC VERBEEK VETERAN 3 19 01:47:14 06:00 10.01
259 278 JEAN-FRANCOIS SACRE VÉTÉRAN 2 47 01:47:24 06:00 10.00
260 132 ANDRÉ GHYSEN VETERAN 3 20 01:47:54 06:02 9.95
261 104 PIERRE DENEVE VETERAN 3 21 01:47:55 06:02 9.95
262 294 PAULINE TAUPIN SENIOR D 14 01:47:59 06:02 9.94
263 417 ERIC BOEREBOOM VETERAN 1 80 01:48:37 06:04 9.88
264 43 MICHEL CHAPUIS VÉTÉRAN 4 3 01:48:43 06:05 9.88
265 222 LOUIS MOORS SENIOR H 73 01:48:43 06:05 9.88
266 170 HELEN JESPERS AINÉE 1 15 01:48:54 06:05 9.86
267 373 JOSE CASTIAUX VETERAN 3 22 01:49:00 06:05 9.85
268 391 FRANÇOIS VAN BOGAERT VETERAN 1 81 01:49:26 06:07 9.81
269 46 GENEVIEVE CHAU AINÉE 1 16 01:49:33 06:07 9.80
270 231 PAULINE NOCENT SENIOR D 15 01:49:55 06:09 9.77
271 81 CELINE DECRAECKER AINÉE 1 17 01:50:00 06:09 9.76
272 22 DANIEL BLERO VÉTÉRAN 2 48 01:50:11 06:09 9.74
273 30 MAGDA BRUGHMANS AINÉE 3 2 01:50:12 06:10 9.74
274 310 CAMILLE VAN DER REST SENIOR D 16 01:50:34 06:11 9.71
275 311 LAURENT VAN DURME VETERAN 1 82 01:50:40 06:11 9.70
276 300 LUC TREHAN VETERAN 3 23 01:50:42 06:11 9.70
277 292 ANNE-SOPHIE STURBOIS AINÉE 1 18 01:50:57 06:12 9.68
278 318 ERIC VANDERSCHUEREN VÉTÉRAN 2 49 01:51:01 06:12 9.67
279 319 LINE VANDERSCHUEREN ESPOIR D 1 01:51:01 06:12 9.67
280 396 PHILIPPE RONDOU VÉTÉRAN 2 50 01:51:12 06:13 9.66
281 83 ERIC DEGAND VÉTÉRAN 2 51 01:51:35 06:14 9.62
282 120 BERNARD FONTAINE VÉTÉRAN 2 52 01:51:36 06:14 9.62
283 399 ALIX HERBOTS SENIOR D 17 01:51:39 06:14 9.62
284 184 SANDRINE LAVERGNE AINÉE 1 19 01:51:41 06:14 9.61
285 57 DOMINIQUE DALEZ AINÉE 2 6 01:51:43 06:15 9.61
286 167 MYRIAM JACQUES AINÉE 3 3 01:52:05 06:16 9.58
287 179 BERNADETTE LAMBERT AINÉE 3 4 01:52:22 06:17 9.55
288 328 CHRISTIANE VILAIN AINÉE 3 5 01:52:26 06:17 9.55
289 148 SARI HANNINEN AINÉE 2 7 01:52:27 06:17 9.55
290 169 SYLVIE JANSSENSWILLEN AINÉE 1 20 01:52:54 06:19 9.51
291 37 LAURENT CALAY VETERAN 1 83 01:53:08 06:19 9.49
292 175 FLORENCE LACROIX AINÉE 1 21 01:53:10 06:19 9.49
293 297 MARYLENE TIGNON AINÉE 2 8 01:53:13 06:20 9.48
294 200 XAVIER LONCOUR VÉTÉRAN 2 53 01:53:19 06:20 9.47
295 40 BENOIT CAUDRON VÉTÉRAN 2 54 01:53:28 06:20 9.46
296 66 JEAN-MARIE DE LEENER VETERAN 3 24 01:53:38 06:21 9.45
297 92 DAPHNE DELCAMBRE AINÉE 2 9 01:53:43 06:21 9.44
298 196 VALERIE LEYSSENS AINÉE 2 10 01:53:43 06:21 9.44
299 147 STEPHANE GUILLAUME VÉTÉRAN 2 55 01:54:20 06:23 9.39
300 229 BENOIT NELIS VÉTÉRAN 2 56 01:54:44 06:25 9.36
301 309 FLORE VAN DER DUSSEN AINÉE 1 22 01:54:59 06:26 9.34
302 337 ETIENNE MEURANT XXX   01:55:00 06:26 9.34
303 151 DAMIEN HELLEPUTTE VETERAN 1 84 01:55:00 06:26 9.34
304 192 CELINE LENTZ SENIOR D 18 01:55:01 06:26 9.33
305 101 NATHALIE DEMARET AINÉE 1 23 01:55:02 06:26 9.33
306 162 GWENDOLINE HOURMAN AINÉE 2 11 01:55:02 06:26 9.33
307 217 PATRICK MISKO VETERAN 3 25 01:55:45 06:28 9.28
308 173 ERIC KRZESLO VETERAN 1 85 01:55:48 06:28 9.27
309 283 JEAN-MARIE SCHOLLAERT VETERAN 3 26 01:55:53 06:29 9.26
310 239 BERENGERE PASO SENIOR D 19 01:55:55 06:29 9.26
311 85 THIERRY DEGREZ VETERAN 3 27 01:56:07 06:29 9.25
312 172 LAURENT KEGELS VÉTÉRAN 2 57 01:56:07 06:29 9.25
313 90 CECILE DELANDE AINÉE 1 24 01:56:08 06:29 9.25
314 15 JULIE BELPAIRE SENIOR D 20 01:56:09 06:29 9.24
315 288 CAROLE STACHE SENIOR D 21 01:56:10 06:30 9.24
316 414 MICHEL BUYSE VÉTÉRAN 2 58 01:56:40 06:31 9.20
317 84 JEAN-PIERRE DEGIVES VETERAN 3 28 01:56:44 06:31 9.20
318 197 JACQUELINE LIESSE AINÉE 3 6 01:56:45 06:31 9.20
319 87 VINCENT MEULDERS VETERAN 1 86 01:56:48 06:32 9.19
320 74 PHILIPPE DE ROP VÉTÉRAN 2 59 01:56:55 06:32 9.18
321 246 PHILIPP-ALEXANDR PERMENTIER SENIOR H 74 01:56:55 06:32 9.18
322 279 PIERRE SAE HOUER VETERAN 1 87 01:56:55 06:32 9.18
323 8 NANCY BAMPS AINÉE 2 12 01:57:06 06:33 9.17
324 129 THIERRY GHOBERT VETERAN 3 29 01:57:06 06:33 9.17
325 245 CHRISTIAN PENING VÉTÉRAN 4 4 01:57:48 06:35 9.11
326 387 MIREILLE MOUSSIAUX AINÉE 2 13 01:57:52 06:35 9.11
327 388 GEERT DE KEERSMAEKER VÉTÉRAN 2 60 01:57:52 06:35 9.11
328 67 THIERRY DE MEESTER VÉTÉRAN 2 61 01:58:06 06:36 9.09
329 181 BENOIT LAMBOT VÉTÉRAN 2 62 01:58:08 06:36 9.09
330 260 LORENZO RANERI VÉTÉRAN 2 63 01:58:34 06:38 9.06
331 322 CLAUDIA VASCONCELLOS AINÉE 3 7 01:58:34 06:38 9.06
332 303 FABIEN VALLI VÉTÉRAN 2 64 01:59:03 06:39 9.02
333 42 SELVI CELILI AINÉE 1 25 01:59:17 06:40 9.00
334 123 DANY FROGNET VÉTÉRAN 2 65 02:00:00 06:42 8.95
335 289 THEODORA STAMOS AINÉE 2 14 02:00:35 06:44 8.90
336 375 MARIE-ANNE MARCHAL AINÉE 3 8 02:00:47 06:45 8.89
337 268 FRANKIE ROSE VETERAN 3 30 02:02:30 06:51 8.76
338 28 MICHELE BRAY AINÉE 2 15 02:03:33 06:54 8.69
339 371 JEAN-PAUL BULTEAU VETERAN 3 31 02:03:33 06:54 8.69
340 370 FABIENNE GARITTE AINÉE 3 9 02:03:35 06:54 8.69
341 164 PIERRE HUON VÉTÉRAN 4 5 02:04:13 06:57 8.64
342 157 FRANÇOISE HOCK AINÉE 2 16 02:04:38 06:58 8.61
343 21 NATHALIE BLATTER AINÉE 1 26 02:04:45 06:58 8.61
344 264 PAOLO RICCI VÉTÉRAN 2 66 02:04:46 06:58 8.61
345 94 ANNE DELCROIX AINÉE 3 10 02:05:14 07:00 8.57
346 88 BENEDICTE DELAERE AINÉE 2 17 02:05:15 07:00 8.57
347 26 JULIE BOUCHER SENIOR D 22 02:05:24 07:00 8.56
348 39 FRANCISCO CARVALLO VETERAN 1 88 02:05:25 07:01 8.56
349 116 CELINE ERHARD AINÉE 1 27 02:06:05 07:03 8.52
350 98 ALICE DELVILLE AINÉE 2 18 02:06:16 07:03 8.50
351 216 FRANCESCO MICCICHE VETERAN 1 89 02:07:16 07:07 8.44
352 121 ANNE FORTIN AINÉE 2 19 02:07:35 07:08 8.42
353 263 ANNE RENDERS AINÉE 3 11 02:07:49 07:09 8.40
354 384 LAURIE THOUVENEL SENIOR D 23 02:07:51 07:09 8.40
355 383 EMILE DUPUY SENIOR H 75 02:07:51 07:09 8.40
356 368 NICOLA MORRIS AINÉE 3 12 02:07:53 07:09 8.40
357 363 PHILIPPE DE LEEUW VETERAN 3 32 02:07:56 07:09 8.39
358 112 SANDRINE DUBOIS AINÉE 2 20 02:08:33 07:11 8.35
359 199 DANIELLE LOCUS AINÉE 2 21 02:08:33 07:11 8.35
360 269 MYRIAM ROSE AINÉE 3 13 02:10:39 07:18 8.22
361 364 GEORGES KIN VÉTÉRAN 4 6 02:11:12 07:20 8.18
362 205 CLAUDIA MACEDO AINÉE 2 22 02:14:16 07:30 8.00
               
Nos dernières videos